Location: Orinda
(37.8771°N, 122.1797°W)
Time: 06:00:16
(UTC+00:00)

KORONAS-FOTON - Pass Details

Date: 21 October 2019
Orbit: 507 x 531 km, 82.4° (Epoch: 18 November)

Event Time Altitude Azimuth Distance (km) Brightness Sun altitude
Rises 13:47:09 0° 207° (SSW) 2,597 7.2 -7.8°
Reaches altitude 10° 13:49:26 10° 218° (SW) 1,717 6.2 -7.3°
Maximum altitude 13:52:48 31° 282° (WNW) 908 4.5 -6.7°
Drops below altitude 10° 13:56:12 10° 346° (NNW) 1,731 6.2 -6.0°
Sets 13:58:31 0° 357° (N) 2,623 7.3 -5.6°
